User: anonymous   Login
Location: 5810 Zion Rd, Cleves, OH 45002, USA
(39.1922°N, 84.7113°W)
Time: 10:20:30
(UTC-05:00)
Language:

KAITUO 1B - Orbit

View from above orbital plane
View from above orbital plane
View from above satellite
View from above satellite

Ground track
Ground track

The orbit data is extracted from the following two-line orbital elements,

1 40912U 15049P   20022.51618443  .00000614  00000-0  31608-4 0  9996
2 40912  97.4496  32.0898 0016102 128.1190  23.4168 15.20016367240392
Epoch (UTC): 22 January 2020 12:23:18
Eccentricity: 0.0016102
inclination: 97.4496°
perigee height: 495 km
apogee height: 517 km
right ascension of ascending node: 32.0898°
argument of perigee: 128.1190°
revolutions per day: 15.20016367
mean anomaly at epoch: 23.4168°
orbit number at epoch: 24039

The dashed part of the orbit path shows where the satellite is in the earth's shadow,  

DLR